Regional Weather Roundup
Issued by NWS Cleveland, OH

Home | Current Version | Previous Version | Graphics & Text | Print | Product List | Glossary On
Versions: 1 2 3 4 5 6 7 8 9 10 11 12 13 14 15 16 17 18 19 20 21 22 23 24 25 26 27 28 29 30 31 32 33 34 35 36 37 38 39 40 41 42 43 44 45 46 47 48 49 50
000
ASUS41 KCLE 012310
RWRCLE
OHIO REGIONAL WEATHER ROUNDUP
NATIONAL WEATHER SERVICE WILMINGTON, OH
700 PM EDT MON SEP 01 2014

NOTE: "FAIR" INDICATES FEW OR NO CLOUDS BELOW 12,000 FEET WITH NO
SIGNIFICANT WEATHER AND/OR OBSTRUCTIONS TO VISIBILITY.

OHZ001>008-015>018-024>027-034-035-043-044-020000-
   NORTHWEST OHIO

CITY           SKY/WX    TMP DP  RH WIND       PRES   REMARKS
DEFIANCE       PTSUNNY   82  70  66 SW13G24   29.81S
FINDLAY        CLOUDY    78  71  79 SW12G23   29.84R
TOLEDO EXPRESS PTSUNNY   79  69  71 SW15G23   29.80R
TOLEDO METCALF PTSUNNY   76  69  79 SW13      29.81R
LIMA           PTSUNNY   82  70  66 SW18G25   29.87R
$$

OHZ009>014-019>023-028>033-038-089-020000-
   NORTHEAST OHIO

CITY           SKY/WX    TMP DP  RH WIND       PRES   REMARKS
CLE-HOPKINS    PTSUNNY   81  69  67 S14G21    29.85F
CLE-LAKEFRONT  PTSUNNY   84  68  58 S16       29.81F
CUY CO. ARPT   PTSUNNY   79  72  78 SW14G22   29.85F
LORAIN-ELYRIA  PTSUNNY   84  69  60 SW13G22   29.85S
ASHTABULA      MOCLDY    79  69  71 S12G20    29.87S
AKRON-CANTON   PTSUNNY   80  69  69 S12       29.91S
WOOSTER        PTSUNNY   79  70  74 S10       29.90S
MANSFIELD      CLOUDY    80  68  66 SW14G26   29.90R
YOUNGSTOWN     MOCLDY    79  68  69 S8        29.91S
$$

OHZ042-051>053-060>062-070>072-077>081-020000-
  SOUTHWEST OHIO

CITY           SKY/WX    TMP DP  RH WIND       PRES   REMARKS
CINC-COVINGTON CLOUDY    82  72  71 SW7       29.94R
CINC-LUNKEN    MOSUNNY   82  72  71 S9        29.92R
HAMILTON       PTSUNNY   80  73  79 SW7       29.92R
DAYTON         LGT RAIN  82  71  69 SW13G22   29.92R
WRIGHT-PAT AFB PTSUNNY   81  72  74 SW13      29.90S
DAYTON GENERAL PTSUNNY   79  73  82 SW7       29.92S
WILMINGTON     CLOUDY    80  70  71 SW13      29.93R
$$

OHZ036-037-039>041-045>050-054>059-063>069-073>076-082>088-020000-
  CENTRAL AND SOUTHEAST OHIO

CITY           SKY/WX    TMP DP  RH WIND       PRES   REMARKS
COLUMBUS       PTSUNNY   85  69  58 SW14      29.90S
OSU AIRPORT    PTSUNNY   82  69  64 SW10      29.90R
BOLTON FIELD   MOSUNNY   81  72  74 SW12G20   29.92R
RICKENBACK AFB TSTM      81  68  64 SW14      29.91R
NEWARK         PTSUNNY   81  71  71 SW6       29.90F
MARION         PTSUNNY   77  72  84 SW6       29.88F
LANCASTER      PTSUNNY   81  71  71 S7        29.92S
ZANESVILLE     PTSUNNY   77  71  82 S5        29.93F
NEW PHILLY     LGT RAIN  74  70  87 SW8       29.94R FOG
$$


USA.gov is the U.S. government's official web portal to all federal, state and local government web resources and services.